Location: Pcim
(49.7500°N, 19.9670°E)
Time: 07:37:39
(UTC+02:00)

AO-27 - Visible Passes

Search period start: 18 April 2024 00:00
Search period end: 28 April 2024 00:00
Orbit: 785 x 795 km, 98.8° (Epoch: 17 April)

Date Brightness Start Highest point End Pass type
(mag) Time Alt. Az. Time Alt. Az. Time Alt. Az.
18 Apr 8.5 21:26:08 10° S 21:31:10 48° W 21:36:16 10° NNW visible
19 Apr 7.7 20:56:22 10° SSE 21:01:36 83° WSW 21:06:53 10° NNW visible
19 Apr 10.2 22:39:26 10° WSW 22:41:53 13° W 22:44:20 10° WNW visible
20 Apr 7.8 20:27:02 10° SSE 20:32:09 59° ENE 20:37:19 10° N visible
20 Apr 9.7 22:07:53 10° SW 22:11:59 23° W 22:16:08 10° NW visible
21 Apr 8.9 21:37:21 10° SSW 21:42:14 39° W 21:47:10 10° NNW visible
22 Apr 8.0 21:07:25 10° S 21:12:37 69° WSW 21:17:52 10° NNW visible
22 Apr 10.4 22:52:05 10° W 22:53:04 10° W 22:54:02 10° WNW visible
23 Apr 7.7 20:37:55 10° SSE 20:43:07 71° ENE 20:48:21 10° NNW visible
23 Apr 9.9 22:19:27 10° SW 22:23:07 19° W 22:26:48 10° NW visible
24 Apr 9.2 21:48:39 10° SSW 21:53:19 32° W 21:58:01 10° NNW visible
25 Apr 8.3 21:18:31 10° S 21:23:38 56° W 21:28:49 10° NNW visible
26 Apr 7.7 20:48:52 10° SSE 20:54:06 86° ENE 20:59:23 10° NNW visible
26 Apr 10.1 22:31:11 10° SW 22:34:15 16° W 22:37:20 10° NW visible
27 Apr 8.0 20:19:38 10° SE 20:24:41 51° ENE 20:29:45 10° N visible
27 Apr 9.5 22:00:01 10° SSW 22:04:24 27° W 22:08:49 10° NW visible
